Regional Weather Roundup
Issued by NWS Albany, NY

Current Version | Previous Version | Text Only | Print | Product List | Glossary On
Versions: 1 2 3 4 5 6 7 8 9 10 11 12 13 14 15 16 17 18 19 20 21 22 23 24 25 26 27 28 29 30 31 32 33 34 35 36 37 38 39 40 41 42 43 44 45 46 47 48 49 50
000
ASUS41 KALY 212010
RWRALY

NEW YORK STATE HOURLY WEATHER ROUNDUP
NATIONAL WEATHER SERVICE ALBANY NY
300 PM EST THU NOV 21 2019

NOTE: "FAIR" INDICATES FEW OR NO CLOUDS BELOW 12,000 FEET WITH NO
SIGNIFICANT WEATHER AND/OR NO OBSTRUCTIONS TO VISIBILITY.

NYZ032-033-038>043-046>054-057>066-NYZ062>081-082-084-212100-
EAST


CITY           SKY/WX    TMP DP  RH WIND       PRES   REMARKS
ALBANY         PTSUNNY   45  31  58 NE3       30.10F
GLENS FALLS    FAIR      33  31  92 CALM      30.10F
POUGHKEEPSIE   FAIR      50  31  48 SE3       30.09F
NEWBURGH       MOSUNNY   50  34  53 VRB5      30.09F
MONTGOMERY     FAIR      50  31  48 S9        30.07F
WHITE PLAINS   FAIR      50  28  42 N3        30.09F
ISLIP          PTSUNNY   51  29  42 W5        30.11R
NEW YORK CITY  PTSUNNY   53  29  39 W5        30.11F
CENTRAL PARK   FAIR      52  29  41 SW3       30.13F
$$

NYZ005>009-017-018-044>046-055-056-212100-
CENTRAL


CITY           SKY/WX    TMP DP  RH WIND       PRES   REMARKS
FULTON         FAIR      44  33  65 SE7       30.02F
SYRACUSE       CLOUDY    48  33  56 S3        30.03F
ROME           FAIR      42  34  73 E6        30.07F
ELMIRA         FAIR      49  32  52 SW9       30.02F
BINGHAMTON     FAIR      44  31  60 SW7       30.03F
MONTICELLO     FAIR      47  31  53 SW3       30.07F
$$

NYZ026>034-041>043-087-212100-
NORTH


CITY           SKY/WX    TMP DP  RH WIND       PRES   REMARKS
WATERTOWN      FAIR      43  32  65 S6        30.02F
FORT DRUM      NOT AVBL
OGDENSBURG     CLOUDY    39  30  70 VRB3      30.01F
MASSENA        CLOUDY    40  29  64 S6        30.06F
SARANAC LAKE   CLOUDY    31  28  89 SW8       30.00F WCI  23
PLATTSBURGH    CLOUDY    36  31  82 CALM      30.08F
$$

NYZ001>004-010>016-019>021-085-212100-
WEST


CITY           SKY/WX    TMP DP  RH WIND       PRES   REMARKS
NIAGARA FALLS  CLOUDY    44  35  70 S13       29.92F
BUFFALO        LGT RAIN  47  35  63 S9        29.93F
DUNKIRK        CLOUDY    48  33  56 S16       29.92F
JAMESTOWN      CLOUDY    42  33  70 S13G20    29.94F
WELLSVILLE     FAIR      43  30  60 S7        29.98F
ROCHESTER      CLOUDY    45  33  63 SE9       29.96F
PENN YAN       FAIR      47  32  56 S10       30.00F
$$

             KEY
       WCI = WIND CHILL INDEX
       VSB = VISIBILITY
       HX  = HEAT INDEX
$$



USA.gov is the U.S. government's official web portal to all federal, state and local government web resources and services.